Time,TemperatureF,DewpointF,PressureIn,WindDirection,WindDirectionDegrees,WindSpeedMPH,WindSpeedGustMPH,Humidity,HourlyPrecipIn,Conditions,Clouds,dailyrainin,SoftwareType,DateUTC
2013-06-14 00:04:00,67.5,38.0,30.04,NE,38,0.0,-999.0,34,-99.99,,,0.00,weatherlink.com 1.10,2013-06-14 08:04:00,
2013-06-14 00:19:00,66.5,39.0,30.05,NE,38,0.0,-999.0,37,-99.99,,,0.00,weatherlink.com 1.10,2013-06-14 08:19:00,
2013-06-14 00:34:00,65.2,39.0,30.05,NE,38,0.0,-999.0,39,-99.99,,,0.00,weatherlink.com 1.10,2013-06-14 08:34:00,
2013-06-14 00:49:00,64.1,40.0,30.05,NE,38,0.0,-999.0,42,-99.99,,,0.00,weatherlink.com 1.10,2013-06-14 08:49:00,
2013-06-14 01:04:00,62.8,40.0,30.05,NE,38,0.0,-999.0,44,-99.99,,,0.00,weatherlink.com 1.10,2013-06-14 09:04:00,
2013-06-14 01:19:00,61.1,42.0,30.06,NE,38,0.0,-999.0,49,-99.99,,,0.00,weatherlink.com 1.10,2013-06-14 09:19:00,
2013-06-14 01:34:00,60.1,40.0,30.06,NE,38,0.0,-999.0,48,-99.99,,,0.00,weatherlink.com 1.10,2013-06-14 09:34:00,
2013-06-14 01:49:00,59.1,41.0,30.06,NE,38,0.0,-999.0,51,-99.99,,,0.00,weatherlink.com 1.10,2013-06-14 09:49:00,
2013-06-14 02:04:00,58.5,41.0,30.06,NE,38,0.0,-999.0,52,-99.99,,,0.00,weatherlink.com 1.10,2013-06-14 10:04:00,
2013-06-14 02:19:00,57.8,42.0,30.06,NE,38,0.0,-999.0,56,-99.99,,,0.00,weatherlink.com 1.10,2013-06-14 10:19:00,
2013-06-14 02:34:00,56.7,42.0,30.06,NE,38,0.0,-999.0,58,-99.99,,,0.00,weatherlink.com 1.10,2013-06-14 10:34:00,
2013-06-14 02:49:00,55.8,44.0,30.07,NE,38,0.0,-999.0,65,-99.99,,,0.00,weatherlink.com 1.10,2013-06-14 10:49:00,
2013-06-14 03:04:00,54.9,43.0,30.07,NE,38,0.0,-999.0,64,-99.99,,,0.00,weatherlink.com 1.10,2013-06-14 11:04:00,
2013-06-14 03:19:00,54.4,43.0,30.07,NE,38,0.0,-999.0,66,-99.99,,,0.00,weatherlink.com 1.10,2013-06-14 11:19:00,
2013-06-14 03:34:00,53.9,42.0,30.07,NE,38,0.0,-999.0,65,-99.99,,,0.00,weatherlink.com 1.10,2013-06-14 11:34:00,
2013-06-14 03:49:00,53.4,43.0,30.07,NE,38,0.0,-999.0,67,-99.99,,,0.00,weatherlink.com 1.10,2013-06-14 11:49:00,
2013-06-14 04:04:00,52.8,42.0,30.07,NE,38,0.0,-999.0,66,-99.99,,,0.00,weatherlink.com 1.10,2013-06-14 12:04:00,
2013-06-14 04:19:00,52.4,42.0,30.08,NE,38,0.0,-999.0,68,-99.99,,,0.00,weatherlink.com 1.10,2013-06-14 12:19:00,
2013-06-14 04:34:00,52.3,42.0,30.08,NE,38,0.0,-999.0,68,-99.99,,,0.00,weatherlink.com 1.10,2013-06-14 12:34:00,
2013-06-14 04:49:00,53.1,42.0,30.08,NE,38,0.0,-999.0,65,-99.99,,,0.00,weatherlink.com 1.10,2013-06-14 12:49:00,
2013-06-14 05:04:00,55.3,42.0,30.08,NE,38,0.0,-999.0,61,-99.99,,,0.00,weatherlink.com 1.10,2013-06-14 13:04:00,
2013-06-14 05:19:00,57.2,43.0,30.09,NE,38,0.0,-999.0,59,-99.99,,,0.00,weatherlink.com 1.10,2013-06-14 13:19:00,
2013-06-14 05:34:00,58.9,43.0,30.09,NE,38,1.0,-999.0,55,-99.99,,,0.00,weatherlink.com 1.10,2013-06-14 13:34:00,
2013-06-14 05:49:00,59.1,42.0,30.09,NE,38,0.0,-999.0,54,-99.99,,,0.00,weatherlink.com 1.10,2013-06-14 13:49:00,
2013-06-14 06:04:00,59.8,42.0,30.10,NE,38,0.0,-999.0,53,-99.99,,,0.00,weatherlink.com 1.10,2013-06-14 14:04:00,
2013-06-14 06:19:00,60.5,42.0,30.10,NE,50,0.0,-999.0,51,-99.99,,,0.00,weatherlink.com 1.10,2013-06-14 14:19:00,
2013-06-14 06:34:00,60.7,43.0,30.10,NE,50,0.0,-999.0,52,-99.99,,,0.00,weatherlink.com 1.10,2013-06-14 14:34:00,
2013-06-14 06:49:00,61.1,43.0,30.11,NE,50,0.0,-999.0,52,-99.99,,,0.00,weatherlink.com 1.10,2013-06-14 14:49:00,
2013-06-14 07:04:00,59.9,44.0,30.11,NE,50,0.0,-999.0,56,-99.99,,,0.00,weatherlink.com 1.10,2013-06-14 15:04:00,
2013-06-14 07:19:00,59.6,44.0,30.11,NE,50,0.0,-999.0,56,-99.99,,,0.00,weatherlink.com 1.10,2013-06-14 15:19:00,
2013-06-14 07:34:00,60.2,44.0,30.11,NE,50,0.0,-999.0,56,-99.99,,,0.00,weatherlink.com 1.10,2013-06-14 15:34:00,
2013-06-14 07:49:00,60.4,45.0,30.11,NE,50,1.0,-999.0,57,-99.99,,,0.00,weatherlink.com 1.10,2013-06-14 15:49:00,
2013-06-14 08:04:00,61.0,45.0,30.11,NE,50,0.0,-999.0,55,-99.99,,,0.00,weatherlink.com 1.10,2013-06-14 16:04:00,
2013-06-14 08:19:00,62.1,45.0,30.12,NE,50,0.0,-999.0,53,-99.99,,,0.00,weatherlink.com 1.10,2013-06-14 16:19:00,
2013-06-14 08:34:00,62.8,45.0,30.12,NE,50,0.0,-999.0,52,-99.99,,,0.00,weatherlink.com 1.10,2013-06-14 16:34:00,
2013-06-14 08:49:00,63.7,45.0,30.12,NE,50,0.0,-999.0,50,-99.99,,,0.00,weatherlink.com 1.10,2013-06-14 16:49:00,
2013-06-14 09:04:00,64.9,45.0,30.12,NE,50,0.0,-999.0,49,-99.99,,,0.00,weatherlink.com 1.10,2013-06-14 17:04:00,
2013-06-14 09:19:00,65.6,45.0,30.13,NE,50,1.0,-999.0,47,-99.99,,,0.00,weatherlink.com 1.10,2013-06-14 17:19:00,
2013-06-14 09:34:00,66.8,45.0,30.12,NE,50,0.0,-999.0,46,-99.99,,,0.00,weatherlink.com 1.10,2013-06-14 17:34:00,
2013-06-14 09:49:00,68.7,45.0,30.12,NE,50,0.0,-999.0,42,-99.99,,,0.00,weatherlink.com 1.10,2013-06-14 17:49:00,
2013-06-14 10:04:00,69.4,45.0,30.12,NE,50,0.0,-999.0,42,-99.99,,,0.00,weatherlink.com 1.10,2013-06-14 18:04:00,
2013-06-14 10:19:00,70.0,44.0,30.12,NE,42,0.0,-999.0,40,-99.99,,,0.00,weatherlink.com 1.10,2013-06-14 18:19:00,
2013-06-14 10:34:00,70.8,45.0,30.12,NE,42,0.0,-999.0,40,-99.99,,,0.00,weatherlink.com 1.10,2013-06-14 18:34:00,
2013-06-14 10:49:00,72.1,45.0,30.12,NE,43,0.0,-999.0,38,-99.99,,,0.00,weatherlink.com 1.10,2013-06-14 18:49:00,
2013-06-14 11:04:00,72.3,45.0,30.12,NE,42,0.0,-999.0,38,-99.99,,,0.00,weatherlink.com 1.10,2013-06-14 19:04:00,
2013-06-14 11:19:00,73.0,45.0,30.12,NE,42,0.0,-999.0,37,-99.99,,,0.00,weatherlink.com 1.10,2013-06-14 19:19:00,
2013-06-14 11:34:00,73.1,45.0,30.11,NNW,347,0.0,-999.0,37,-99.99,,,0.00,weatherlink.com 1.10,2013-06-14 19:34:00,
2013-06-14 11:49:00,73.6,43.0,30.11,NNE,17,0.0,-999.0,33,-99.99,,,0.00,weatherlink.com 1.10,2013-06-14 19:49:00,
2013-06-14 12:04:00,74.2,43.0,30.11,West,271,2.0,-999.0,33,-99.99,,,0.00,weatherlink.com 1.10,2013-06-14 20:04:00,
2013-06-14 12:19:00,74.3,43.0,30.11,NNE,21,0.0,-999.0,33,-99.99,,,0.00,weatherlink.com 1.10,2013-06-14 20:19:00,
2013-06-14 12:34:00,74.4,43.0,30.11,NNE,23,0.0,-999.0,33,-99.99,,,0.00,weatherlink.com 1.10,2013-06-14 20:34:00,
2013-06-14 12:49:00,74.8,41.0,30.11,NNE,23,0.0,-999.0,30,-99.99,,,0.00,weatherlink.com 1.10,2013-06-14 20:49:00,
2013-06-14 13:04:00,75.2,41.0,30.11,NNE,23,1.0,-999.0,29,-99.99,,,0.00,weatherlink.com 1.10,2013-06-14 21:04:00,
2013-06-14 13:19:00,75.4,42.0,30.10,NNE,26,0.0,-999.0,30,-99.99,,,0.00,weatherlink.com 1.10,2013-06-14 21:19:00,
2013-06-14 13:34:00,76.0,41.0,30.10,NNE,26,0.0,-999.0,29,-99.99,,,0.00,weatherlink.com 1.10,2013-06-14 21:34:00,
2013-06-14 13:49:00,76.4,38.0,30.10,NNE,17,0.0,-999.0,25,-99.99,,,0.00,weatherlink.com 1.10,2013-06-14 21:49:00,
2013-06-14 14:04:00,76.9,39.0,30.10,NNE,19,0.0,-999.0,26,-99.99,,,0.00,weatherlink.com 1.10,2013-06-14 22:04:00,
2013-06-14 14:19:00,76.9,36.0,30.10,NNE,24,0.0,-999.0,23,-99.99,,,0.00,weatherlink.com 1.10,2013-06-14 22:19:00,
2013-06-14 14:34:00,77.5,38.0,30.09,NNE,24,2.0,-999.0,24,-99.99,,,0.00,weatherlink.com 1.10,2013-06-14 22:34:00,
2013-06-14 14:49:00,77.8,38.0,30.09,NE,35,0.0,-999.0,24,-99.99,,,0.00,weatherlink.com 1.10,2013-06-14 22:49:00,
2013-06-14 15:04:00,77.8,38.0,30.09,NE,35,0.0,-999.0,24,-99.99,,,0.00,weatherlink.com 1.10,2013-06-14 23:04:00,
2013-06-14 15:19:00,78.1,37.0,30.09,ENE,66,1.0,-999.0,23,-99.99,,,0.00,weatherlink.com 1.10,2013-06-14 23:19:00,
2013-06-14 15:34:00,78.4,36.0,30.09,ENE,66,0.0,-999.0,22,-99.99,,,0.00,weatherlink.com 1.10,2013-06-14 23:34:00,
2013-06-14 15:49:00,79.5,39.0,30.09,NW,306,0.0,-999.0,23,-99.99,,,0.00,weatherlink.com 1.10,2013-06-14 23:49:00,
2013-06-14 16:04:00,81.0,39.0,30.08,NW,310,0.0,-999.0,22,-99.99,,,0.00,weatherlink.com 1.10,2013-06-15 00:04:00,
2013-06-14 16:19:00,81.6,38.0,30.08,NW,307,0.0,-999.0,21,-99.99,,,0.00,weatherlink.com 1.10,2013-06-15 00:19:00,
2013-06-14 16:34:00,82.8,40.0,30.08,NW,309,0.0,-999.0,22,-99.99,,,0.00,weatherlink.com 1.10,2013-06-15 00:34:00,
2013-06-14 16:49:00,83.4,40.0,30.08,NW,309,0.0,-999.0,21,-99.99,,,0.00,weatherlink.com 1.10,2013-06-15 00:49:00,
2013-06-14 17:04:00,83.4,40.0,30.08,NW,308,0.0,-999.0,21,-99.99,,,0.00,weatherlink.com 1.10,2013-06-15 01:04:00,
2013-06-14 17:19:00,84.1,41.0,30.08,NW,309,0.0,-999.0,22,-99.99,,,0.00,weatherlink.com 1.10,2013-06-15 01:19:00,
2013-06-14 17:34:00,84.6,41.0,30.08,NW,309,0.0,-999.0,21,-99.99,,,0.00,weatherlink.com 1.10,2013-06-15 01:34:00,
2013-06-14 17:49:00,84.5,39.0,30.08,West,275,0.0,-999.0,20,-99.99,,,0.00,weatherlink.com 1.10,2013-06-15 01:49:00,
2013-06-14 18:04:00,84.7,41.0,30.08,SW,229,1.0,-999.0,21,-99.99,,,0.00,weatherlink.com 1.10,2013-06-15 02:04:00,
2013-06-14 18:19:00,85.0,41.0,30.08,SW,229,1.0,-999.0,21,-99.99,,,0.00,weatherlink.com 1.10,2013-06-15 02:19:00,
2013-06-14 18:34:00,85.4,41.0,30.07,SW,229,0.0,-999.0,21,-99.99,,,0.00,weatherlink.com 1.10,2013-06-15 02:34:00,
2013-06-14 18:49:00,85.1,41.0,30.07,WSW,252,0.0,-999.0,21,-99.99,,,0.00,weatherlink.com 1.10,2013-06-15 02:49:00,
2013-06-14 19:04:00,84.3,39.0,30.07,WSW,252,0.0,-999.0,20,-99.99,,,0.00,weatherlink.com 1.10,2013-06-15 03:04:00,
2013-06-14 19:19:00,83.6,39.0,30.07,West,279,0.0,-999.0,20,-99.99,,,0.00,weatherlink.com 1.10,2013-06-15 03:19:00,
2013-06-14 19:34:00,83.1,39.0,30.07,NW,313,0.0,-999.0,21,-99.99,,,0.00,weatherlink.com 1.10,2013-06-15 03:34:00,
2013-06-14 19:49:00,82.8,40.0,30.08,NW,317,0.0,-999.0,22,-99.99,,,0.00,weatherlink.com 1.10,2013-06-15 03:49:00,
2013-06-14 20:04:00,83.0,39.0,30.08,NW,317,0.0,-999.0,21,-99.99,,,0.00,weatherlink.com 1.10,2013-06-15 04:04:00,
2013-06-14 20:19:00,83.5,38.0,30.08,NW,317,0.0,-999.0,20,-99.99,,,0.00,weatherlink.com 1.10,2013-06-15 04:19:00,
2013-06-14 20:34:00,83.8,39.0,30.08,NW,317,0.0,-999.0,20,-99.99,,,0.00,weatherlink.com 1.10,2013-06-15 04:34:00,
2013-06-14 20:49:00,84.1,39.0,30.08,NW,317,0.0,-999.0,20,-99.99,,,0.00,weatherlink.com 1.10,2013-06-15 04:49:00,
2013-06-14 21:04:00,84.2,40.0,30.08,NW,317,0.0,-999.0,21,-99.99,,,0.00,weatherlink.com 1.10,2013-06-15 05:04:00,
2013-06-14 21:19:00,84.8,42.0,30.08,NW,317,0.0,-999.0,22,-99.99,,,0.00,weatherlink.com 1.10,2013-06-15 05:19:00,
2013-06-14 21:34:00,84.2,39.0,30.09,NW,317,0.0,-999.0,20,-99.99,,,0.00,weatherlink.com 1.10,2013-06-15 05:34:00,
2013-06-14 21:49:00,84.2,38.0,30.09,NW,317,0.0,-999.0,19,-99.99,,,0.00,weatherlink.com 1.10,2013-06-15 05:49:00,
2013-06-14 22:04:00,82.5,38.0,30.09,NW,317,0.0,-999.0,20,-99.99,,,0.00,weatherlink.com 1.10,2013-06-15 06:04:00,
2013-06-14 22:19:00,81.0,41.0,30.10,NW,317,0.0,-999.0,24,-99.99,,,0.00,weatherlink.com 1.10,2013-06-15 06:19:00,
2013-06-14 22:34:00,79.2,42.0,30.10,NW,317,0.0,-999.0,27,-99.99,,,0.00,weatherlink.com 1.10,2013-06-15 06:34:00,
2013-06-14 22:49:00,78.0,43.0,30.10,NW,317,0.0,-999.0,29,-99.99,,,0.00,weatherlink.com 1.10,2013-06-15 06:49:00,
2013-06-14 23:04:00,76.6,44.0,30.10,NW,317,0.0,-999.0,31,-99.99,,,0.00,weatherlink.com 1.10,2013-06-15 07:04:00,
2013-06-14 23:19:00,74.3,44.0,30.10,NW,317,0.0,-999.0,34,-99.99,,,0.00,weatherlink.com 1.10,2013-06-15 07:19:00,
2013-06-14 23:34:00,71.8,43.0,30.11,NW,317,0.0,-999.0,36,-99.99,,,0.00,weatherlink.com 1.10,2013-06-15 07:34:00,
2013-06-14 23:49:00,69.7,47.0,30.11,NW,317,0.0,-999.0,44,-99.99,,,0.00,weatherlink.com 1.10,2013-06-15 07:49:00,